Weather Roundup
Issued by NWS Chicago, IL

Home | Current Version | Previous Version | Text Only | Print | Product List | Glossary On
Versions: 1 2 3 4 5 6 7 8 9 10 11 12 13 14 15 16 17 18 19 20 21 22 23 24 25 26 27 28 29 30 31 32 33 34 35 36 37 38 39 40 41 42 43 44 45 46 47 48 49 50
000
NZUS59 KLOT 240521
HRRLOT

CHICAGO AREA WEATHER ROUNDUP
NATIONAL WEATHER SERVICE CHICAGO/ROMEOVILLE IL
1200 AM CDT SUN MAY 24 2015

NOTE: "FAIR" INDICATES FEW OR NO CLOUDS BELOW 12,000 FEET WITH NO
SIGNIFICANT WEATHER AND/OR OBSTRUCTIONS TO VISIBILITY.

* THESE STATIONS ARE NOT UNDER NWS QUALITY CONTROL. THEY ALSO MAY NOT
  REPORT WEATHER SUCH AS PRECIPITATION OR FOG.

ILZ005-006-012>014-019>023-240600-
NORTHEAST ILLINOIS

CITY           SKY/WX    TMP DP  RH WIND       PRES   REMARKS
OHARE          PTCLDY    63  45  51 S6        30.20S
MIDWAY         MOCLDY    71  44  37 S6        30.20F
AURORA         MOCLDY    63  47  55 SE6       30.19F
LANSING*       PTCLDY    60  44  55 S5        30.21S
JOLIET*        MOCLDY    67  48  50 CALM      30.19F
WAUKEGAN       PTCLDY    51  41  68 CALM      30.19F
DUPAGE AIRPORT PTCLDY    62  47  57 S6        30.19F
WHEELING       PTCLDY    59  45  59 CALM      30.22S
KANKAKEE*      MOCLDY    63  48  59 S5        30.21F
MORRIS*        MOCLDY    64  47  53 S6        30.18F
LEWIS AIRPORT* MOCLDY    64  45  50 S6        30.19F
NORTHERLY IS     N/A     58  49  72 SW1         N/A
$$

WIZ051-052-058>065-066-070>072-240600-
SOUTHEAST WISCONSIN

CITY           SKY/WX    TMP DP  RH WIND       PRES   REMARKS
MILWAUKEE      PTCLDY    60  39  45 S3        30.20S
KENOSHA*       PTCLDY    55  41  59 CALM      30.20F
RACINE*        PTCLDY    57  38  48 S6        30.22S
BURLINGTON     PTCLDY    53  46  77 CALM      30.19F
WAUKESHA       PTCLDY    59  39  47 S3        30.20F
WEST BEND      PTCLDY    52  45  76 CALM      30.20S
$$

INZ001>003-010>013-019-020-240600-
NORTHWEST INDIANA

CITY           SKY/WX    TMP DP  RH WIND       PRES   REMARKS
GARY*          PTCLDY    62  48  59 CALM      30.21F
MICHIGAN CITY* NOT AVBL
RENSSELAER*    NOT AVBL
VALPARAISO     PTCLDY    63  45  51 SE5       30.23S
$$

LMZ740>746-240600-
SOUTHERN LAKE MICHIGAN

STATION/POSITION TIME  SKY/WX   TEMP WIND        PRES    VSBY
                                AIR  DIR/SP/G
                 (UTC)          (F)  (DEG/KT/KT) (MB)    (MI)
HARRISON CRIB    0500            69  190/  9/  9   N/A
BURNHAM HARBOR   0500            64  200/  5       N/A
CALUMET HARBOR   0400            71  180/  5/  8   N/A
BURNS HARBOR     0400            69  180/  7/ 10 1023.4S
MICHIGAN CITY    0500            69  150/  8/ 12   N/A
$$

ABBREVIATIONS USED IN REMARKS
   TC - TEMPERATURE IN CELSIUS
  WCI - WIND CHILL INDEX
   HX - HEAT INDEX
  VSB - VISIBILITY
$$



USA.gov is the U.S. government's official web portal to all federal, state and local government web resources and services.